Time,TemperatureF,DewpointF,PressureIn,WindDirection,WindDirectionDegrees,WindSpeedMPH,WindSpeedGustMPH,Humidity,HourlyPrecipIn,Conditions,Clouds,dailyrainin,SoftwareType,DateUTC
2013-06-02 00:01:00,62.6,48.0,29.05,WNW,292,0.0,-999.0,60,0.00,,,0.00,Rainwise IP-100,2013-06-02 07:01:00,
2013-06-02 00:06:00,62.3,49.0,29.05,WNW,292,1.2,-999.0,61,0.00,,,0.00,Rainwise IP-100,2013-06-02 07:06:00,
2013-06-02 00:11:00,61.8,49.0,29.05,WNW,292,0.0,-999.0,62,0.00,,,0.00,Rainwise IP-100,2013-06-02 07:11:00,
2013-06-02 00:16:00,61.6,49.0,29.05,WNW,292,0.0,-999.0,63,0.00,,,0.00,Rainwise IP-100,2013-06-02 07:16:00,
2013-06-02 00:21:00,61.7,49.0,29.05,WNW,292,0.0,-999.0,64,0.00,,,0.00,Rainwise IP-100,2013-06-02 07:21:00,
2013-06-02 00:26:00,61.8,49.0,29.05,WNW,292,1.2,-999.0,63,0.00,,,0.00,Rainwise IP-100,2013-06-02 07:26:00,
2013-06-02 00:31:00,61.6,49.0,29.05,WNW,292,1.2,-999.0,63,0.00,,,0.00,Rainwise IP-100,2013-06-02 07:31:00,
2013-06-02 00:36:00,61.6,48.0,29.05,WNW,292,0.0,-999.0,62,0.00,,,0.00,Rainwise IP-100,2013-06-02 07:36:00,
2013-06-02 00:41:00,61.6,48.0,29.05,WNW,292,0.0,-999.0,62,0.00,,,0.00,Rainwise IP-100,2013-06-02 07:41:00,
2013-06-02 00:46:00,61.2,48.0,29.04,WNW,292,0.0,-999.0,63,0.00,,,0.00,Rainwise IP-100,2013-06-02 07:46:00,
2013-06-02 00:51:00,60.9,49.0,29.04,WNW,292,0.0,-999.0,64,0.00,,,0.00,Rainwise IP-100,2013-06-02 07:51:00,
2013-06-02 00:56:00,60.7,47.5,29.04,WNW,292,0.0,-999.0,63,0.00,,,0.00,Rainwise IP-100,2013-06-02 07:56:00,
2013-06-02 01:01:00,60.3,48.0,29.05,WNW,292,0.0,-999.0,64,0.00,,,0.00,Rainwise IP-100,2013-06-02 08:01:00,
2013-06-02 01:06:00,59.7,47.5,29.04,WNW,292,0.0,-999.0,64,0.00,,,0.00,Rainwise IP-100,2013-06-02 08:06:00,
2013-06-02 01:11:00,59.3,47.5,29.04,WNW,292,0.0,-999.0,65,0.00,,,0.00,Rainwise IP-100,2013-06-02 08:11:00,
2013-06-02 01:16:00,59.0,47.5,29.04,WNW,292,0.0,-999.0,66,0.00,,,0.00,Rainwise IP-100,2013-06-02 08:16:00,
2013-06-02 01:21:00,58.9,48.0,29.04,WNW,292,1.2,-999.0,67,0.00,,,0.00,Rainwise IP-100,2013-06-02 08:21:00,
2013-06-02 01:26:00,58.8,48.0,29.04,WNW,292,0.0,-999.0,68,0.00,,,0.00,Rainwise IP-100,2013-06-02 08:26:00,
2013-06-02 01:31:00,58.8,48.0,29.04,WNW,292,0.0,-999.0,68,0.00,,,0.00,Rainwise IP-100,2013-06-02 08:31:00,
2013-06-02 01:34:00,58.8,48.0,29.04,West,270,1.2,-999.0,67,0.00,,,0.00,Rainwise IP-100,2013-06-02 08:34:00,
2013-06-02 01:39:00,58.5,48.0,29.04,West,270,0.0,-999.0,68,0.00,,,0.00,Rainwise IP-100,2013-06-02 08:39:00,
2013-06-02 01:44:00,58.2,48.0,29.03,West,270,1.9,-999.0,70,0.00,,,0.00,Rainwise IP-100,2013-06-02 08:44:00,
2013-06-02 01:49:00,58.0,48.0,29.03,West,270,0.0,-999.0,69,0.00,,,0.00,Rainwise IP-100,2013-06-02 08:49:00,
2013-06-02 01:54:00,57.8,47.5,29.03,West,270,1.4,-999.0,68,0.00,,,0.00,Rainwise IP-100,2013-06-02 08:54:00,
2013-06-02 01:59:00,57.7,47.5,29.03,West,270,1.9,-999.0,68,0.00,,,0.00,Rainwise IP-100,2013-06-02 08:59:00,
2013-06-02 02:04:00,57.6,47.5,29.03,West,270,0.0,-999.0,69,0.00,,,0.00,Rainwise IP-100,2013-06-02 09:04:00,
2013-06-02 02:09:00,57.6,48.0,29.03,West,270,0.0,-999.0,70,0.00,,,0.00,Rainwise IP-100,2013-06-02 09:09:00,
2013-06-02 02:14:00,57.5,48.0,29.03,West,270,0.0,-999.0,71,0.00,,,0.00,Rainwise IP-100,2013-06-02 09:14:00,
2013-06-02 02:19:00,57.4,49.0,29.03,NNW,337,0.0,-999.0,72,0.00,,,0.00,Rainwise IP-100,2013-06-02 09:19:00,
2013-06-02 02:24:00,57.1,47.5,29.02,WNW,292,1.9,-999.0,71,0.00,,,0.00,Rainwise IP-100,2013-06-02 09:24:00,
2013-06-02 02:29:00,57.0,48.0,29.03,WNW,292,0.0,-999.0,72,0.00,,,0.00,Rainwise IP-100,2013-06-02 09:29:00,
2013-06-02 02:34:00,57.1,48.0,29.03,WNW,292,0.0,-999.0,73,0.00,,,0.00,Rainwise IP-100,2013-06-02 09:34:00,
2013-06-02 02:39:00,56.8,48.0,29.02,WNW,292,0.0,-999.0,72,0.00,,,0.00,Rainwise IP-100,2013-06-02 09:39:00,
2013-06-02 02:44:00,56.3,47.5,29.03,WSW,247,0.0,-999.0,72,0.00,,,0.00,Rainwise IP-100,2013-06-02 09:44:00,
2013-06-02 02:49:00,55.9,47.0,29.02,WSW,247,0.0,-999.0,72,0.00,,,0.00,Rainwise IP-100,2013-06-02 09:49:00,
2013-06-02 02:54:00,55.8,47.0,29.02,WSW,247,1.4,-999.0,72,0.00,,,0.00,Rainwise IP-100,2013-06-02 09:54:00,
2013-06-02 02:59:00,55.8,47.0,29.02,WSW,247,1.6,-999.0,72,0.00,,,0.00,Rainwise IP-100,2013-06-02 09:59:00,
2013-06-02 03:03:00,55.7,47.0,29.02,WSW,247,0.0,-999.0,72,0.00,,,0.00,Rainwise IP-100,2013-06-02 10:03:00,
2013-06-02 03:08:00,55.7,47.5,29.02,WSW,247,1.4,-999.0,73,0.00,,,0.00,Rainwise IP-100,2013-06-02 10:08:00,
2013-06-02 03:13:00,55.5,47.5,29.02,WSW,247,1.9,-999.0,73,0.00,,,0.00,Rainwise IP-100,2013-06-02 10:13:00,
2013-06-02 03:18:00,55.4,47.5,29.02,WSW,247,0.0,-999.0,74,0.00,,,0.00,Rainwise IP-100,2013-06-02 10:18:00,
2013-06-02 03:23:00,55.4,47.5,29.02,WSW,247,0.0,-999.0,74,0.00,,,0.00,Rainwise IP-100,2013-06-02 10:23:00,
2013-06-02 03:28:00,55.6,47.5,29.02,SE,135,0.0,-999.0,73,0.00,,,0.00,Rainwise IP-100,2013-06-02 10:28:00,
2013-06-02 03:33:00,55.5,47.5,29.02,NNE,22,0.0,-999.0,73,0.00,,,0.00,Rainwise IP-100,2013-06-02 10:33:00,
2013-06-02 03:38:00,55.4,47.0,29.02,NW,315,0.0,-999.0,73,0.00,,,0.00,Rainwise IP-100,2013-06-02 10:38:00,
2013-06-02 03:43:00,55.4,47.5,29.02,NW,315,0.0,-999.0,74,0.00,,,0.00,Rainwise IP-100,2013-06-02 10:43:00,
2013-06-02 03:48:00,55.4,47.5,29.01,WNW,292,1.9,-999.0,74,0.00,,,0.00,Rainwise IP-100,2013-06-02 10:48:00,
2013-06-02 03:53:00,55.1,47.5,29.01,WNW,292,0.0,-999.0,74,0.00,,,0.00,Rainwise IP-100,2013-06-02 10:53:00,
2013-06-02 03:58:00,54.8,47.5,29.01,WNW,292,2.1,-999.0,74,0.00,,,0.00,Rainwise IP-100,2013-06-02 10:58:00,
2013-06-02 04:03:00,54.6,47.0,29.01,WNW,292,1.9,-999.0,74,0.00,,,0.00,Rainwise IP-100,2013-06-02 11:03:00,
2013-06-02 04:08:00,54.7,47.0,29.01,West,270,0.0,-999.0,75,0.00,,,0.00,Rainwise IP-100,2013-06-02 11:08:00,
2013-06-02 04:10:00,54.7,47.0,29.01,West,270,0.0,-999.0,75,0.00,,,0.00,Rainwise IP-100,2013-06-02 11:10:00,
2013-06-02 04:15:00,54.7,47.5,29.01,West,270,0.0,-999.0,76,0.00,,,0.00,Rainwise IP-100,2013-06-02 11:15:00,
2013-06-02 04:20:00,54.7,47.5,29.00,West,270,1.9,-999.0,76,0.00,,,0.00,Rainwise IP-100,2013-06-02 11:20:00,
2013-06-02 04:25:00,54.8,47.5,29.01,West,270,0.0,-999.0,76,0.00,,,0.00,Rainwise IP-100,2013-06-02 11:25:00,
2013-06-02 04:30:00,54.9,47.5,29.01,West,270,0.0,-999.0,76,0.00,,,0.00,Rainwise IP-100,2013-06-02 11:30:00,
2013-06-02 04:35:00,54.8,47.5,29.01,West,270,1.4,-999.0,76,0.00,,,0.00,Rainwise IP-100,2013-06-02 11:35:00,
2013-06-02 04:40:00,54.5,47.0,29.01,West,270,0.0,-999.0,75,0.00,,,0.00,Rainwise IP-100,2013-06-02 11:40:00,
2013-06-02 04:45:00,54.4,47.0,29.01,West,270,0.0,-999.0,75,0.00,,,0.00,Rainwise IP-100,2013-06-02 11:45:00,
2013-06-02 04:50:00,54.1,47.0,29.01,West,270,0.0,-999.0,76,0.00,,,0.00,Rainwise IP-100,2013-06-02 11:50:00,
2013-06-02 04:55:00,53.9,47.0,29.01,West,270,0.0,-999.0,76,0.00,,,0.00,Rainwise IP-100,2013-06-02 11:55:00,
2013-06-02 05:00:00,53.7,47.0,29.01,West,270,0.0,-999.0,77,0.00,,,0.00,Rainwise IP-100,2013-06-02 12:00:00,
2013-06-02 05:05:00,53.3,47.0,29.01,West,270,0.0,-999.0,78,0.00,,,0.00,Rainwise IP-100,2013-06-02 12:05:00,
2013-06-02 05:10:00,52.8,46.0,29.01,West,270,0.0,-999.0,78,0.00,,,0.00,Rainwise IP-100,2013-06-02 12:10:00,
2013-06-02 05:15:00,52.7,46.0,29.01,West,270,1.6,-999.0,78,0.00,,,0.00,Rainwise IP-100,2013-06-02 12:15:00,
2013-06-02 05:20:00,52.7,46.0,29.01,West,270,0.0,-999.0,78,0.00,,,0.00,Rainwise IP-100,2013-06-02 12:20:00,
2013-06-02 05:25:00,53.0,46.0,29.01,West,270,2.6,-999.0,77,0.00,,,0.00,Rainwise IP-100,2013-06-02 12:25:00,
2013-06-02 05:30:00,53.2,46.0,29.01,West,270,1.9,-999.0,77,0.00,,,0.00,Rainwise IP-100,2013-06-02 12:30:00,
2013-06-02 05:35:00,53.0,46.0,29.01,West,270,0.0,-999.0,77,0.00,,,0.00,Rainwise IP-100,2013-06-02 12:35:00,
2013-06-02 05:40:00,53.0,45.0,29.01,West,270,2.1,-999.0,76,0.00,,,0.00,Rainwise IP-100,2013-06-02 12:40:00,
2013-06-02 05:45:00,53.2,45.0,29.01,West,270,1.4,-999.0,76,0.00,,,0.00,Rainwise IP-100,2013-06-02 12:45:00,
2013-06-02 05:50:00,53.5,46.0,29.02,West,270,1.2,-999.0,76,0.00,,,0.00,Rainwise IP-100,2013-06-02 12:50:00,
2013-06-02 05:55:00,53.8,47.0,29.02,West,270,0.0,-999.0,75,0.00,,,0.00,Rainwise IP-100,2013-06-02 12:55:00,
2013-06-02 06:00:00,53.7,46.0,29.02,West,270,1.4,-999.0,75,0.00,,,0.00,Rainwise IP-100,2013-06-02 13:00:00,
2013-06-02 06:05:00,53.4,46.0,29.02,West,270,1.6,-999.0,75,0.00,,,0.00,Rainwise IP-100,2013-06-02 13:05:00,
2013-06-02 06:10:00,53.1,45.0,29.02,West,270,0.0,-999.0,75,0.00,,,0.00,Rainwise IP-100,2013-06-02 13:10:00,
2013-06-02 06:15:00,52.8,45.0,29.02,West,270,1.2,-999.0,75,0.00,,,0.00,Rainwise IP-100,2013-06-02 13:15:00,
2013-06-02 06:20:00,52.9,45.0,29.02,West,270,0.0,-999.0,76,0.00,,,0.00,Rainwise IP-100,2013-06-02 13:20:00,
2013-06-02 06:25:00,53.1,46.0,29.02,West,270,0.0,-999.0,78,0.00,,,0.00,Rainwise IP-100,2013-06-02 13:25:00,
2013-06-02 06:30:00,53.3,47.0,29.02,West,270,0.0,-999.0,78,0.00,,,0.00,Rainwise IP-100,2013-06-02 13:30:00,
2013-06-02 06:35:00,53.4,47.0,29.02,West,270,0.0,-999.0,77,0.00,,,0.00,Rainwise IP-100,2013-06-02 13:35:00,
2013-06-02 06:40:00,53.3,47.0,29.02,West,270,0.0,-999.0,77,0.00,,,0.00,Rainwise IP-100,2013-06-02 13:40:00,
2013-06-02 06:45:00,53.6,46.0,29.02,West,270,0.0,-999.0,76,0.00,,,0.00,Rainwise IP-100,2013-06-02 13:45:00,
2013-06-02 06:50:00,54.1,47.0,29.02,West,270,0.0,-999.0,75,0.00,,,0.00,Rainwise IP-100,2013-06-02 13:50:00,
2013-06-02 06:55:00,54.7,47.0,29.03,West,270,0.0,-999.0,75,0.00,,,0.00,Rainwise IP-100,2013-06-02 13:55:00,
2013-06-02 07:00:00,55.6,47.5,29.02,West,270,0.0,-999.0,74,0.00,,,0.00,Rainwise IP-100,2013-06-02 14:00:00,
2013-06-02 07:05:00,56.2,47.5,29.03,West,270,0.0,-999.0,74,0.00,,,0.00,Rainwise IP-100,2013-06-02 14:05:00,
2013-06-02 07:10:00,56.8,49.0,29.02,West,270,0.0,-999.0,74,0.00,,,0.00,Rainwise IP-100,2013-06-02 14:10:00,
2013-06-02 07:15:00,58.4,49.0,29.03,West,270,0.0,-999.0,71,0.00,,,0.00,Rainwise IP-100,2013-06-02 14:15:00,
2013-06-02 07:20:00,60.1,49.0,29.02,West,270,0.0,-999.0,68,0.00,,,0.00,Rainwise IP-100,2013-06-02 14:20:00,
2013-06-02 07:25:00,61.2,50.0,29.02,West,270,0.0,-999.0,67,0.00,,,0.00,Rainwise IP-100,2013-06-02 14:25:00,
2013-06-02 07:30:00,61.9,50.5,29.03,West,270,0.0,-999.0,66,0.00,,,0.00,Rainwise IP-100,2013-06-02 14:30:00,
2013-06-02 07:35:00,63.1,50.5,29.02,West,270,0.0,-999.0,64,0.00,,,0.00,Rainwise IP-100,2013-06-02 14:35:00,
2013-06-02 07:40:00,64.3,50.5,29.02,West,270,0.0,-999.0,61,0.00,,,0.00,Rainwise IP-100,2013-06-02 14:40:00,
2013-06-02 07:45:00,65.6,50.5,29.02,WSW,247,0.0,-999.0,59,0.00,,,0.00,Rainwise IP-100,2013-06-02 14:45:00,
2013-06-02 07:50:00,66.6,50.5,29.02,SE,135,0.0,-999.0,56,0.00,,,0.00,Rainwise IP-100,2013-06-02 14:50:00,
2013-06-02 07:55:00,67.5,50.5,29.02,SE,135,0.0,-999.0,54,0.00,,,0.00,Rainwise IP-100,2013-06-02 14:55:00,
2013-06-02 08:00:00,68.4,50.0,29.02,SE,135,0.0,-999.0,52,0.00,,,0.00,Rainwise IP-100,2013-06-02 15:00:00,
2013-06-02 08:05:00,69.1,50.0,29.02,SE,135,0.0,-999.0,50,0.00,,,0.00,Rainwise IP-100,2013-06-02 15:05:00,
2013-06-02 08:10:00,69.4,49.0,29.02,ESE,112,0.0,-999.0,48,0.00,,,0.00,Rainwise IP-100,2013-06-02 15:10:00,
2013-06-02 08:15:00,69.7,48.0,29.02,SE,135,0.0,-999.0,46,0.00,,,0.00,Rainwise IP-100,2013-06-02 15:15:00,
2013-06-02 08:20:00,70.5,47.5,29.02,East,90,2.8,-999.0,44,0.00,,,0.00,Rainwise IP-100,2013-06-02 15:20:00,
2013-06-02 08:25:00,70.7,47.5,29.02,ESE,112,1.6,-999.0,44,0.00,,,0.00,Rainwise IP-100,2013-06-02 15:25:00,
2013-06-02 08:30:00,71.4,48.0,29.02,SSE,157,1.2,-999.0,44,0.00,,,0.00,Rainwise IP-100,2013-06-02 15:30:00,
2013-06-02 08:35:00,72.6,50.0,29.02,SSE,157,0.0,-999.0,44,0.00,,,0.00,Rainwise IP-100,2013-06-02 15:35:00,
2013-06-02 08:40:00,73.2,49.0,29.01,ESE,112,1.2,-999.0,42,0.00,,,0.00,Rainwise IP-100,2013-06-02 15:40:00,
2013-06-02 08:45:00,72.7,48.0,29.01,SE,135,1.2,-999.0,42,0.00,,,0.00,Rainwise IP-100,2013-06-02 15:45:00,
2013-06-02 08:50:00,73.4,48.0,29.01,ESE,112,1.6,-999.0,41,0.00,,,0.00,Rainwise IP-100,2013-06-02 15:50:00,
2013-06-02 08:55:00,74.2,48.0,29.01,East,90,1.9,-999.0,40,0.00,,,0.00,Rainwise IP-100,2013-06-02 15:55:00,
2013-06-02 09:00:00,74.6,48.0,29.01,SSE,157,0.0,-999.0,39,0.00,,,0.00,Rainwise IP-100,2013-06-02 16:00:00,
2013-06-02 09:05:00,75.3,49.0,29.01,East,90,2.3,-999.0,39,0.00,,,0.00,Rainwise IP-100,2013-06-02 16:05:00,
2013-06-02 09:10:00,75.1,47.5,29.01,SSE,157,0.0,-999.0,38,0.00,,,0.00,Rainwise IP-100,2013-06-02 16:10:00,
2013-06-02 09:15:00,75.8,48.0,29.01,ESE,112,1.4,-999.0,38,0.00,,,0.00,Rainwise IP-100,2013-06-02 16:15:00,
2013-06-02 09:20:00,77.1,49.0,29.01,SE,135,1.4,-999.0,37,0.00,,,0.00,Rainwise IP-100,2013-06-02 16:20:00,
2013-06-02 09:25:00,77.1,49.0,29.01,ENE,67,3.7,-999.0,37,0.00,,,0.00,Rainwise IP-100,2013-06-02 16:25:00,
2013-06-02 09:30:00,77.3,49.0,29.00,ESE,112,1.4,-999.0,37,0.00,,,0.00,Rainwise IP-100,2013-06-02 16:30:00,
2013-06-02 09:35:00,77.4,49.0,29.00,East,90,2.1,-999.0,37,0.00,,,0.00,Rainwise IP-100,2013-06-02 16:35:00,
2013-06-02 09:40:00,77.2,48.0,29.00,East,90,1.4,-999.0,36,0.00,,,0.00,Rainwise IP-100,2013-06-02 16:40:00,
2013-06-02 09:45:00,78.0,49.0,29.00,ESE,112,2.3,-999.0,36,0.00,,,0.00,Rainwise IP-100,2013-06-02 16:45:00,
2013-06-02 09:50:00,79.1,50.0,29.00,SSE,157,4.0,-999.0,36,0.00,,,0.00,Rainwise IP-100,2013-06-02 16:50:00,
2013-06-02 09:55:00,79.7,50.0,29.00,East,90,3.5,-999.0,35,0.00,,,0.00,Rainwise IP-100,2013-06-02 16:55:00,
2013-06-02 10:00:00,80.5,50.0,29.00,ESE,112,0.0,-999.0,34,0.00,,,0.00,Rainwise IP-100,2013-06-02 17:00:00,
2013-06-02 10:05:00,81.4,50.5,29.00,ESE,112,2.6,-999.0,34,0.00,,,0.00,Rainwise IP-100,2013-06-02 17:05:00,
2013-06-02 10:10:00,82.5,50.0,28.99,SE,135,1.9,-999.0,32,0.00,,,0.00,Rainwise IP-100,2013-06-02 17:10:00,
2013-06-02 10:15:00,83.3,50.0,28.99,NNE,22,0.0,-999.0,31,0.00,,,0.00,Rainwise IP-100,2013-06-02 17:15:00,
2013-06-02 10:20:00,83.2,49.0,28.99,ESE,112,0.0,-999.0,30,0.00,,,0.00,Rainwise IP-100,2013-06-02 17:20:00,
2013-06-02 10:25:00,83.4,48.0,28.99,ENE,67,1.4,-999.0,29,0.00,,,0.00,Rainwise IP-100,2013-06-02 17:25:00,
2013-06-02 10:30:00,84.8,48.0,28.99,ESE,112,3.3,-999.0,28,0.00,,,0.00,Rainwise IP-100,2013-06-02 17:30:00,
2013-06-02 10:35:00,85.0,47.5,28.99,SSE,157,3.0,-999.0,27,0.00,,,0.00,Rainwise IP-100,2013-06-02 17:35:00,
2013-06-02 10:40:00,84.9,46.0,28.99,ENE,67,3.5,-999.0,26,0.00,,,0.00,Rainwise IP-100,2013-06-02 17:40:00,
2013-06-02 10:45:00,85.9,47.5,28.99,SE,135,2.1,-999.0,26,0.00,,,0.00,Rainwise IP-100,2013-06-02 17:45:00,
2013-06-02 10:50:00,86.9,47.0,28.98,SSE,157,4.7,-999.0,25,0.00,,,0.00,Rainwise IP-100,2013-06-02 17:50:00,
2013-06-02 10:55:00,87.3,47.5,28.99,SSE,157,5.1,-999.0,25,0.00,,,0.00,Rainwise IP-100,2013-06-02 17:55:00,
2013-06-02 11:00:00,87.2,46.0,28.98,ESE,112,4.4,-999.0,24,0.00,,,0.00,Rainwise IP-100,2013-06-02 18:00:00,
2013-06-02 11:05:00,86.6,45.0,28.98,East,90,2.3,-999.0,24,0.00,,,0.00,Rainwise IP-100,2013-06-02 18:05:00,
2013-06-02 11:10:00,86.6,45.0,28.98,ESE,112,1.9,-999.0,24,0.00,,,0.00,Rainwise IP-100,2013-06-02 18:10:00,
2013-06-02 11:15:00,87.3,46.0,28.98,SSE,157,1.4,-999.0,24,0.00,,,0.00,Rainwise IP-100,2013-06-02 18:15:00,
2013-06-02 11:20:00,88.2,46.0,28.98,NNE,22,3.0,-999.0,23,0.00,,,0.00,Rainwise IP-100,2013-06-02 18:20:00,
2013-06-02 11:25:00,89.0,47.0,28.98,SSE,157,1.2,-999.0,23,0.00,,,0.00,Rainwise IP-100,2013-06-02 18:25:00,
2013-06-02 11:30:00,89.3,47.0,28.98,SSE,157,0.0,-999.0,23,0.00,,,0.00,Rainwise IP-100,2013-06-02 18:30:00,
2013-06-02 11:35:00,89.6,46.0,28.97,ENE,67,1.2,-999.0,22,0.00,,,0.00,Rainwise IP-100,2013-06-02 18:35:00,
2013-06-02 11:40:00,89.5,46.0,28.97,SSE,157,1.2,-999.0,22,0.00,,,0.00,Rainwise IP-100,2013-06-02 18:40:00,
2013-06-02 11:45:00,89.8,46.0,28.97,SSE,157,4.9,-999.0,22,0.00,,,0.00,Rainwise IP-100,2013-06-02 18:45:00,
2013-06-02 11:50:00,89.7,46.0,28.97,SSE,157,2.1,-999.0,22,0.00,,,0.00,Rainwise IP-100,2013-06-02 18:50:00,
2013-06-02 11:55:00,89.3,46.0,28.97,ESE,112,4.7,-999.0,22,0.00,,,0.00,Rainwise IP-100,2013-06-02 18:55:00,
2013-06-02 12:00:00,89.7,46.0,28.96,ESE,112,3.7,-999.0,22,0.00,,,0.00,Rainwise IP-100,2013-06-02 19:00:00,
2013-06-02 12:05:00,90.5,47.0,28.97,SSE,157,3.0,-999.0,22,0.00,,,0.00,Rainwise IP-100,2013-06-02 19:05:00,
2013-06-02 12:10:00,90.2,45.0,28.96,SSE,157,5.8,-999.0,21,0.00,,,0.00,Rainwise IP-100,2013-06-02 19:10:00,
2013-06-02 12:15:00,90.1,44.0,28.96,SW,225,4.0,-999.0,20,0.00,,,0.00,Rainwise IP-100,2013-06-02 19:15:00,
2013-06-02 12:20:00,90.3,44.0,28.95,NNE,22,2.1,-999.0,20,0.00,,,0.00,Rainwise IP-100,2013-06-02 19:20:00,
2013-06-02 12:25:00,90.8,44.0,28.96,SSE,157,1.9,-999.0,20,0.00,,,0.00,Rainwise IP-100,2013-06-02 19:25:00,
2013-06-02 12:30:00,91.9,45.0,28.95,SSW,202,5.4,-999.0,20,0.00,,,0.00,Rainwise IP-100,2013-06-02 19:30:00,
2013-06-02 12:35:00,92.1,45.0,28.96,WSW,247,4.0,-999.0,20,0.00,,,0.00,Rainwise IP-100,2013-06-02 19:35:00,
2013-06-02 12:40:00,92.1,45.0,28.95,SSE,157,5.6,-999.0,20,0.00,,,0.00,Rainwise IP-100,2013-06-02 19:40:00,
2013-06-02 12:45:00,91.7,45.0,28.95,ENE,67,0.0,-999.0,20,0.00,,,0.00,Rainwise IP-100,2013-06-02 19:45:00,
2013-06-02 12:50:00,91.2,46.0,28.95,SSE,157,5.1,-999.0,21,0.00,,,0.00,Rainwise IP-100,2013-06-02 19:50:00,
2013-06-02 12:55:00,91.3,46.0,28.95,South,180,4.2,-999.0,21,0.00,,,0.00,Rainwise IP-100,2013-06-02 19:55:00,
2013-06-02 13:00:00,91.6,46.0,28.95,SSE,157,5.8,-999.0,21,0.00,,,0.00,Rainwise IP-100,2013-06-02 20:00:00,
2013-06-02 13:05:00,91.8,47.5,28.95,SSE,157,4.7,-999.0,22,0.00,,,0.00,Rainwise IP-100,2013-06-02 20:05:00,
2013-06-02 13:10:00,91.8,47.5,28.95,SSW,202,2.3,-999.0,22,0.00,,,0.00,Rainwise IP-100,2013-06-02 20:10:00,
2013-06-02 13:15:00,91.8,49.0,28.94,SSE,157,6.8,-999.0,23,0.00,,,0.00,Rainwise IP-100,2013-06-02 20:15:00,
2013-06-02 13:20:00,91.6,47.5,28.95,SSE,157,8.4,-999.0,22,0.00,,,0.00,Rainwise IP-100,2013-06-02 20:20:00,
2013-06-02 13:25:00,91.4,47.5,28.95,SSW,202,2.6,-999.0,22,0.00,,,0.00,Rainwise IP-100,2013-06-02 20:25:00,
2013-06-02 13:30:00,91.5,47.5,28.95,SSE,157,7.7,-999.0,22,0.00,,,0.00,Rainwise IP-100,2013-06-02 20:30:00,
2013-06-02 13:35:00,91.6,47.5,28.95,South,180,4.4,-999.0,22,0.00,,,0.00,Rainwise IP-100,2013-06-02 20:35:00,
2013-06-02 13:40:00,91.7,47.5,28.94,SSW,202,0.0,-999.0,22,0.00,,,0.00,Rainwise IP-100,2013-06-02 20:40:00,
2013-06-02 13:45:00,91.4,47.5,28.94,South,180,6.5,-999.0,22,0.00,,,0.00,Rainwise IP-100,2013-06-02 20:45:00,
2013-06-02 13:50:00,91.5,47.5,28.94,WSW,247,2.8,-999.0,22,0.00,,,0.00,Rainwise IP-100,2013-06-02 20:50:00,
2013-06-02 13:55:00,91.9,47.5,28.94,SSE,157,5.4,-999.0,22,0.00,,,0.00,Rainwise IP-100,2013-06-02 20:55:00,
2013-06-02 14:00:00,92.3,48.0,28.94,SSW,202,1.4,-999.0,22,0.00,,,0.00,Rainwise IP-100,2013-06-02 21:00:00,
2013-06-02 14:05:00,91.8,47.5,28.94,SE,135,7.7,-999.0,22,0.00,,,0.00,Rainwise IP-100,2013-06-02 21:05:00,
2013-06-02 14:10:00,91.6,47.5,28.94,SSW,202,3.7,-999.0,22,0.00,,,0.00,Rainwise IP-100,2013-06-02 21:10:00,
2013-06-02 14:15:00,92.1,47.5,28.94,SW,225,3.7,-999.0,22,0.00,,,0.00,Rainwise IP-100,2013-06-02 21:15:00,
2013-06-02 14:20:00,92.3,48.0,28.94,West,270,4.2,-999.0,22,0.00,,,0.00,Rainwise IP-100,2013-06-02 21:20:00,
2013-06-02 14:25:00,92.3,48.0,28.94,SSE,157,2.6,-999.0,22,0.00,,,0.00,Rainwise IP-100,2013-06-02 21:25:00,
2013-06-02 14:30:00,92.3,48.0,28.94,East,90,2.1,-999.0,22,0.00,,,0.00,Rainwise IP-100,2013-06-02 21:30:00,
2013-06-02 14:35:00,92.7,48.0,28.94,SSE,157,4.9,-999.0,22,0.00,,,0.00,Rainwise IP-100,2013-06-02 21:35:00,
2013-06-02 14:40:00,92.7,47.5,28.94,SW,225,4.0,-999.0,21,0.00,,,0.00,Rainwise IP-100,2013-06-02 21:40:00,
2013-06-02 14:45:00,92.6,47.0,28.94,WSW,247,3.7,-999.0,21,0.00,,,0.00,Rainwise IP-100,2013-06-02 21:45:00,
2013-06-02 14:50:00,93.0,48.0,28.93,ESE,112,0.0,-999.0,22,0.00,,,0.00,Rainwise IP-100,2013-06-02 21:50:00,
2013-06-02 14:55:00,93.4,47.5,28.93,SSW,202,2.6,-999.0,21,0.00,,,0.00,Rainwise IP-100,2013-06-02 21:55:00,
2013-06-02 15:00:00,93.6,47.5,28.94,SSE,157,3.7,-999.0,21,0.00,,,0.00,Rainwise IP-100,2013-06-02 22:00:00,
2013-06-02 15:05:00,93.2,47.5,28.93,SSW,202,4.9,-999.0,21,0.00,,,0.00,Rainwise IP-100,2013-06-02 22:05:00,
2013-06-02 15:10:00,93.1,46.0,28.93,West,270,2.1,-999.0,20,0.00,,,0.00,Rainwise IP-100,2013-06-02 22:10:00,
2013-06-02 15:15:00,93.5,47.0,28.93,SSE,157,2.3,-999.0,20,0.00,,,0.00,Rainwise IP-100,2013-06-02 22:15:00,
2013-06-02 15:20:00,93.6,47.0,28.93,SSE,157,2.3,-999.0,20,0.00,,,0.00,Rainwise IP-100,2013-06-02 22:20:00,
2013-06-02 15:25:00,94.0,47.0,28.92,SSW,202,0.0,-999.0,20,0.00,,,0.00,Rainwise IP-100,2013-06-02 22:25:00,
2013-06-02 15:30:00,94.0,47.0,28.93,SSE,157,6.5,-999.0,20,0.00,,,0.00,Rainwise IP-100,2013-06-02 22:30:00,
2013-06-02 15:35:00,94.0,47.0,28.92,SSE,157,4.9,-999.0,20,0.00,,,0.00,Rainwise IP-100,2013-06-02 22:35:00,
2013-06-02 15:40:00,94.4,47.5,28.92,WSW,247,1.9,-999.0,20,0.00,,,0.00,Rainwise IP-100,2013-06-02 22:40:00,
2013-06-02 15:45:00,94.4,47.5,28.92,SSE,157,6.3,-999.0,20,0.00,,,0.00,Rainwise IP-100,2013-06-02 22:45:00,
2013-06-02 15:50:00,94.4,47.5,28.92,SW,225,2.1,-999.0,20,0.00,,,0.00,Rainwise IP-100,2013-06-02 22:50:00,
2013-06-02 15:55:00,94.2,47.0,28.92,ESE,112,4.4,-999.0,20,0.00,,,0.00,Rainwise IP-100,2013-06-02 22:55:00,
2013-06-02 16:00:00,93.7,47.0,28.92,SW,225,6.3,-999.0,20,0.00,,,0.00,Rainwise IP-100,2013-06-02 23:00:00,
2013-06-02 16:05:00,94.1,48.0,28.92,SSW,202,3.7,-999.0,21,0.00,,,0.00,Rainwise IP-100,2013-06-02 23:05:00,
2013-06-02 16:10:00,94.3,48.0,28.92,SW,225,3.0,-999.0,21,0.00,,,0.00,Rainwise IP-100,2013-06-02 23:10:00,
2013-06-02 16:15:00,93.8,48.0,28.92,South,180,2.3,-999.0,21,0.00,,,0.00,Rainwise IP-100,2013-06-02 23:15:00,
2013-06-02 16:20:00,94.1,48.0,28.92,SSW,202,6.8,-999.0,21,0.00,,,0.00,Rainwise IP-100,2013-06-02 23:20:00,
2013-06-02 16:25:00,94.3,48.0,28.91,SSW,202,3.7,-999.0,21,0.00,,,0.00,Rainwise IP-100,2013-06-02 23:25:00,
2013-06-02 16:30:00,94.3,47.5,28.91,SW,225,2.1,-999.0,20,0.00,,,0.00,Rainwise IP-100,2013-06-02 23:30:00,
2013-06-02 16:35:00,94.6,47.5,28.91,SSE,157,4.9,-999.0,20,0.00,,,0.00,Rainwise IP-100,2013-06-02 23:35:00,
2013-06-02 16:40:00,94.6,47.5,28.92,SSW,202,4.4,-999.0,20,0.00,,,0.00,Rainwise IP-100,2013-06-02 23:40:00,
2013-06-02 16:45:00,94.4,47.5,28.92,SW,225,3.0,-999.0,20,0.00,,,0.00,Rainwise IP-100,2013-06-02 23:45:00,
2013-06-02 16:50:00,94.1,48.0,28.91,WSW,247,1.9,-999.0,21,0.00,,,0.00,Rainwise IP-100,2013-06-02 23:50:00,
2013-06-02 16:55:00,93.8,48.0,28.91,SSE,157,2.6,-999.0,21,0.00,,,0.00,Rainwise IP-100,2013-06-02 23:55:00,
2013-06-02 17:00:00,93.5,47.5,28.91,SSW,202,4.2,-999.0,21,0.00,,,0.00,Rainwise IP-100,2013-06-03 00:00:00,
2013-06-02 17:05:00,93.4,47.0,28.91,West,270,5.4,-999.0,20,0.00,,,0.00,Rainwise IP-100,2013-06-03 00:05:00,
2013-06-02 17:10:00,93.4,47.5,28.91,SSW,202,3.7,-999.0,21,0.00,,,0.00,Rainwise IP-100,2013-06-03 00:10:00,
2013-06-02 17:15:00,93.1,47.5,28.90,SSW,202,2.6,-999.0,21,0.00,,,0.00,Rainwise IP-100,2013-06-03 00:15:00,
2013-06-02 17:20:00,93.2,47.5,28.91,SSE,157,2.6,-999.0,21,0.00,,,0.00,Rainwise IP-100,2013-06-03 00:20:00,
2013-06-02 17:25:00,93.2,47.5,28.90,SSW,202,5.4,-999.0,21,0.00,,,0.00,Rainwise IP-100,2013-06-03 00:25:00,
2013-06-02 17:30:00,92.6,47.0,28.90,SW,225,6.3,-999.0,21,0.00,,,0.00,Rainwise IP-100,2013-06-03 00:30:00,
2013-06-02 17:35:00,92.4,47.0,28.90,WSW,247,1.4,-999.0,21,0.00,,,0.00,Rainwise IP-100,2013-06-03 00:35:00,
2013-06-02 17:40:00,92.5,47.0,28.90,WSW,247,7.5,-999.0,21,0.00,,,0.00,Rainwise IP-100,2013-06-03 00:40:00,
2013-06-02 17:45:00,92.2,47.0,28.90,SSW,202,7.0,-999.0,21,0.00,,,0.00,Rainwise IP-100,2013-06-03 00:45:00,
2013-06-02 17:50:00,91.9,47.0,28.90,SW,225,2.8,-999.0,21,0.00,,,0.00,Rainwise IP-100,2013-06-03 00:50:00,
2013-06-02 17:55:00,91.8,47.0,28.90,SW,225,7.5,-999.0,21,0.00,,,0.00,Rainwise IP-100,2013-06-03 00:55:00,
2013-06-02 18:00:00,91.8,47.5,28.89,WSW,247,5.4,-999.0,22,0.00,,,0.00,Rainwise IP-100,2013-06-03 01:00:00,
2013-06-02 18:05:00,91.6,47.5,28.89,SSW,202,2.6,-999.0,22,0.00,,,0.00,Rainwise IP-100,2013-06-03 01:05:00,
2013-06-02 18:10:00,91.4,47.5,28.90,SSW,202,5.4,-999.0,22,0.00,,,0.00,Rainwise IP-100,2013-06-03 01:10:00,
2013-06-02 18:15:00,91.1,47.0,28.89,WSW,247,3.7,-999.0,22,0.00,,,0.00,Rainwise IP-100,2013-06-03 01:15:00,
2013-06-02 18:20:00,90.8,47.0,28.89,WSW,247,4.7,-999.0,22,0.00,,,0.00,Rainwise IP-100,2013-06-03 01:20:00,
2013-06-02 18:25:00,90.4,47.0,28.89,SSW,202,5.6,-999.0,22,0.00,,,0.00,Rainwise IP-100,2013-06-03 01:25:00,
2013-06-02 18:30:00,90.4,47.5,28.89,WSW,247,2.6,-999.0,23,0.00,,,0.00,Rainwise IP-100,2013-06-03 01:30:00,
2013-06-02 18:35:00,90.4,47.0,28.89,SW,225,3.3,-999.0,22,0.00,,,0.00,Rainwise IP-100,2013-06-03 01:35:00,
2013-06-02 18:40:00,90.3,47.0,28.89,SW,225,3.5,-999.0,22,0.00,,,0.00,Rainwise IP-100,2013-06-03 01:40:00,
2013-06-02 18:45:00,90.2,47.5,28.89,SSW,202,2.3,-999.0,23,0.00,,,0.00,Rainwise IP-100,2013-06-03 01:45:00,
2013-06-02 18:50:00,89.9,47.5,28.89,SW,225,1.6,-999.0,23,0.00,,,0.00,Rainwise IP-100,2013-06-03 01:50:00,
2013-06-02 18:55:00,90.0,48.0,28.89,WSW,247,1.9,-999.0,24,0.00,,,0.00,Rainwise IP-100,2013-06-03 01:55:00,
2013-06-02 19:00:00,89.9,48.0,28.89,SW,225,1.9,-999.0,24,0.00,,,0.00,Rainwise IP-100,2013-06-03 02:00:00,
2013-06-02 19:05:00,89.5,48.0,28.89,SW,225,3.0,-999.0,24,0.00,,,0.00,Rainwise IP-100,2013-06-03 02:05:00,
2013-06-02 19:10:00,89.1,47.5,28.89,SW,225,2.6,-999.0,24,0.00,,,0.00,Rainwise IP-100,2013-06-03 02:10:00,
2013-06-02 19:15:00,88.7,48.0,28.89,SW,225,2.1,-999.0,25,0.00,,,0.00,Rainwise IP-100,2013-06-03 02:15:00,
2013-06-02 19:20:00,88.0,49.0,28.90,SW,225,0.0,-999.0,26,0.00,,,0.00,Rainwise IP-100,2013-06-03 02:20:00,
2013-06-02 19:25:00,87.2,50.0,28.89,SW,225,0.0,-999.0,28,0.00,,,0.00,Rainwise IP-100,2013-06-03 02:25:00,
2013-06-02 19:30:00,85.9,50.0,28.90,SW,225,1.2,-999.0,29,0.00,,,0.00,Rainwise IP-100,2013-06-03 02:30:00,
2013-06-02 19:35:00,84.3,50.5,28.90,WSW,247,0.0,-999.0,31,0.00,,,0.00,Rainwise IP-100,2013-06-03 02:35:00,
2013-06-02 19:40:00,82.9,50.0,28.90,WSW,247,0.0,-999.0,32,0.00,,,0.00,Rainwise IP-100,2013-06-03 02:40:00,
2013-06-02 19:45:00,81.8,50.0,28.90,WSW,247,0.0,-999.0,33,0.00,,,0.00,Rainwise IP-100,2013-06-03 02:45:00,
2013-06-02 19:50:00,80.8,50.0,28.90,WSW,247,0.0,-999.0,34,0.00,,,0.00,Rainwise IP-100,2013-06-03 02:50:00,
2013-06-02 19:55:00,79.8,50.0,28.90,WSW,247,0.0,-999.0,35,0.00,,,0.00,Rainwise IP-100,2013-06-03 02:55:00,
2013-06-02 20:00:00,78.9,50.0,28.91,WSW,247,0.0,-999.0,36,0.00,,,0.00,Rainwise IP-100,2013-06-03 03:00:00,
2013-06-02 20:05:00,78.0,50.0,28.91,WSW,247,0.0,-999.0,37,0.00,,,0.00,Rainwise IP-100,2013-06-03 03:05:00,
2013-06-02 20:10:00,77.3,50.0,28.91,WSW,247,0.0,-999.0,38,0.00,,,0.00,Rainwise IP-100,2013-06-03 03:10:00,
2013-06-02 20:15:00,76.6,50.0,28.91,WSW,247,1.6,-999.0,39,0.00,,,0.00,Rainwise IP-100,2013-06-03 03:15:00,
2013-06-02 20:20:00,75.9,50.0,28.91,WSW,247,1.2,-999.0,40,0.00,,,0.00,Rainwise IP-100,2013-06-03 03:20:00,
2013-06-02 20:25:00,75.1,49.0,28.91,WSW,247,0.0,-999.0,40,0.00,,,0.00,Rainwise IP-100,2013-06-03 03:25:00,
2013-06-02 20:30:00,74.7,50.5,28.91,WSW,247,0.0,-999.0,42,0.00,,,0.00,Rainwise IP-100,2013-06-03 03:30:00,
2013-06-02 20:35:00,74.3,50.5,28.92,WSW,247,0.0,-999.0,43,0.00,,,0.00,Rainwise IP-100,2013-06-03 03:35:00,
2013-06-02 20:40:00,73.8,51.0,28.92,WSW,247,0.0,-999.0,45,0.00,,,0.00,Rainwise IP-100,2013-06-03 03:40:00,
2013-06-02 20:45:00,73.2,50.5,28.92,WSW,247,2.3,-999.0,45,0.00,,,0.00,Rainwise IP-100,2013-06-03 03:45:00,
2013-06-02 20:50:00,72.7,50.5,28.92,WSW,247,0.0,-999.0,46,0.00,,,0.00,Rainwise IP-100,2013-06-03 03:50:00,
2013-06-02 20:55:00,72.4,51.0,28.92,WSW,247,0.0,-999.0,47,0.00,,,0.00,Rainwise IP-100,2013-06-03 03:55:00,
2013-06-02 21:00:00,72.2,52.0,28.92,WSW,247,1.2,-999.0,49,0.00,,,0.00,Rainwise IP-100,2013-06-03 04:00:00,
2013-06-02 21:01:00,72.2,52.0,28.92,WSW,247,1.2,-999.0,49,0.00,,,0.00,Rainwise IP-100,2013-06-03 04:01:00,
2013-06-02 21:06:00,71.9,53.0,28.93,WSW,247,1.9,-999.0,50,0.00,,,0.00,Rainwise IP-100,2013-06-03 04:06:00,
2013-06-02 21:11:00,71.7,52.0,28.93,WSW,247,0.0,-999.0,50,0.00,,,0.00,Rainwise IP-100,2013-06-03 04:11:00,
2013-06-02 21:16:00,71.5,53.0,28.93,WSW,247,2.1,-999.0,51,0.00,,,0.00,Rainwise IP-100,2013-06-03 04:16:00,
2013-06-02 21:21:00,71.1,52.0,28.94,WSW,247,0.0,-999.0,51,0.00,,,0.00,Rainwise IP-100,2013-06-03 04:21:00,
2013-06-02 21:26:00,70.6,53.0,28.94,WSW,247,0.0,-999.0,53,0.00,,,0.00,Rainwise IP-100,2013-06-03 04:26:00,
2013-06-02 21:31:00,70.2,52.0,28.94,WSW,247,0.0,-999.0,53,0.00,,,0.00,Rainwise IP-100,2013-06-03 04:31:00,
2013-06-02 21:36:00,69.5,51.0,28.94,WSW,247,0.0,-999.0,52,0.00,,,0.00,Rainwise IP-100,2013-06-03 04:36:00,
2013-06-02 21:41:00,68.6,50.5,28.95,WSW,247,0.0,-999.0,53,0.00,,,0.00,Rainwise IP-100,2013-06-03 04:41:00,
2013-06-02 21:46:00,68.1,50.5,28.95,WSW,247,1.2,-999.0,54,0.00,,,0.00,Rainwise IP-100,2013-06-03 04:46:00,
2013-06-02 21:51:00,67.8,51.0,28.95,WSW,247,1.6,-999.0,55,0.00,,,0.00,Rainwise IP-100,2013-06-03 04:51:00,
2013-06-02 21:56:00,67.3,50.5,28.95,WSW,247,0.0,-999.0,55,0.00,,,0.00,Rainwise IP-100,2013-06-03 04:56:00,
2013-06-02 22:01:00,66.8,50.0,28.96,WSW,247,0.0,-999.0,55,0.00,,,0.00,Rainwise IP-100,2013-06-03 05:01:00,
2013-06-02 22:06:00,66.3,50.0,28.96,WSW,247,0.0,-999.0,56,0.00,,,0.00,Rainwise IP-100,2013-06-03 05:06:00,
2013-06-02 22:11:00,65.7,50.0,28.96,WSW,247,0.0,-999.0,57,0.00,,,0.00,Rainwise IP-100,2013-06-03 05:11:00,
2013-06-02 22:16:00,65.1,50.5,28.95,WSW,247,0.0,-999.0,59,0.00,,,0.00,Rainwise IP-100,2013-06-03 05:16:00,
2013-06-02 22:21:00,64.6,50.5,28.96,WSW,247,0.0,-999.0,61,0.00,,,0.00,Rainwise IP-100,2013-06-03 05:21:00,
2013-06-02 22:26:00,64.2,50.5,28.96,WSW,247,0.0,-999.0,62,0.00,,,0.00,Rainwise IP-100,2013-06-03 05:26:00,
2013-06-02 22:31:00,63.8,50.5,28.96,WSW,247,0.0,-999.0,62,0.00,,,0.00,Rainwise IP-100,2013-06-03 05:31:00,
2013-06-02 22:36:00,63.3,50.5,28.96,WSW,247,1.2,-999.0,62,0.00,,,0.00,Rainwise IP-100,2013-06-03 05:36:00,
2013-06-02 22:41:00,62.8,50.0,28.96,WSW,247,0.0,-999.0,62,0.00,,,0.00,Rainwise IP-100,2013-06-03 05:41:00,
2013-06-02 22:46:00,62.6,50.0,28.96,WSW,247,1.6,-999.0,63,0.00,,,0.00,Rainwise IP-100,2013-06-03 05:46:00,
2013-06-02 22:51:00,62.5,50.0,28.96,WSW,247,0.0,-999.0,63,0.00,,,0.00,Rainwise IP-100,2013-06-03 05:51:00,
2013-06-02 22:56:00,62.2,50.0,28.96,WSW,247,0.0,-999.0,64,0.00,,,0.00,Rainwise IP-100,2013-06-03 05:56:00,
2013-06-02 23:01:00,61.9,50.0,28.96,WSW,247,0.0,-999.0,64,0.00,,,0.00,Rainwise IP-100,2013-06-03 06:01:00,
2013-06-02 23:06:00,61.5,49.0,28.96,WSW,247,0.0,-999.0,64,0.00,,,0.00,Rainwise IP-100,2013-06-03 06:06:00,
2013-06-02 23:11:00,61.0,50.0,28.96,WSW,247,0.0,-999.0,66,0.00,,,0.00,Rainwise IP-100,2013-06-03 06:11:00,
2013-06-02 23:16:00,60.6,50.0,28.96,WSW,247,0.0,-999.0,67,0.00,,,0.00,Rainwise IP-100,2013-06-03 06:16:00,
2013-06-02 23:21:00,60.2,49.0,28.96,WSW,247,0.0,-999.0,68,0.00,,,0.00,Rainwise IP-100,2013-06-03 06:21:00,
2013-06-02 23:26:00,59.9,50.0,28.96,WSW,247,1.2,-999.0,69,0.00,,,0.00,Rainwise IP-100,2013-06-03 06:26:00,
2013-06-02 23:31:00,59.8,50.0,28.96,WSW,247,0.0,-999.0,69,0.00,,,0.00,Rainwise IP-100,2013-06-03 06:31:00,
2013-06-02 23:35:00,59.6,49.0,28.96,WSW,247,1.9,-999.0,69,0.00,,,0.00,Rainwise IP-100,2013-06-03 06:35:00,
2013-06-02 23:40:00,59.4,50.0,28.96,WSW,247,0.0,-999.0,71,0.00,,,0.00,Rainwise IP-100,2013-06-03 06:40:00,
2013-06-02 23:41:00,59.4,50.5,28.96,WSW,247,0.0,-999.0,72,0.00,,,0.00,Rainwise IP-100,2013-06-03 06:41:00,
2013-06-02 23:46:00,59.4,51.0,28.96,WSW,247,0.0,-999.0,74,0.00,,,0.00,Rainwise IP-100,2013-06-03 06:46:00,
2013-06-02 23:51:00,59.2,50.5,28.97,WSW,247,1.2,-999.0,74,0.00,,,0.00,Rainwise IP-100,2013-06-03 06:51:00,
2013-06-02 23:56:00,58.7,50.5,28.97,WSW,247,0.0,-999.0,73,0.00,,,0.00,Rainwise IP-100,2013-06-03 06:56:00,